Weather History for Auburn, AL

Change the Weather History Date:

Saturday, March 2, 2013

  Actual Average Record
Temperature  
Mean Temperature 38 °F -  
Max Temperature 39 °F - 79 °F (2012)
Min Temperature 36 °F - 18 °F (1980)
Degree Days  
Heating Degree Days 27    
Month to date heating degree days 50  
Since 1 July heating degree days 1534  
Cooling Degree Days 0    
Month to date cooling degree days 0  
Year to date cooling degree days 11  
Moisture  
Dew Point 26 °F    
Average Humidity 64    
Maximum Humidity 75    
Minimum Humidity 56    
Precipitation  
Precipitation 0.00 in - 4.12 in (1971)
Month to date precipitation 0.00  
Year to date precipitation 13.38  
Sea Level Pressure  
Sea Level Pressure 30.02 in    
Wind  
Wind Speed 10 mph (NW)    
Max Wind Speed 15 mph    
Max Gust Speed 20 mph    
Visibility 10 miles    
Events      
T = Trace of Precipitation, MM = Missing Value Source: NWS Daily Summary

Daily Weather History Graph

Daily Weather History Graph

Search for Another Location

Airport:

Trip Planner

Search our weather history database for the weather conditions in past years. The results will help you decide how hot, cold, wet, or windy it might be!

Date:

Astronomy

Mar. 02, 2013 Rise Set
Actual Time 6:07 AM CST 5:40 PM CST
Civil Twilight 5:43 AM CST 6:04 PM CST
Nautical Twilight 5:14 AM CST 6:33 PM CST
Astronomical Twilight 4:46 AM CST 7:01 PM CST
Moon 10:57 PM CST (3/2) 8:54 AM CST (3/2)
Length of Visible Light 12h 21m
Length of Day
11h 32m
Waning Gibbous, 74% of the Moon is Illuminated
Mar 2
Waning Gibbous
Mar 4
Last Quarter
Mar 11
New
Mar 19
First Quarter
Mar 27
Full

Hourly Weather History & Observations

Time (CST) Temp. Windchill Dew Point Humidity Pressure Visibility Wind Dir Wind Speed Gust Speed Precip Events Conditions
12:15 AM 35.6 °F 29.9 °F 24.8 °F 65% 30.01 in 10.0 mi WNW 6.9 mph - N/A   Scattered Clouds
12:35 AM 35.6 °F 29.2 °F 24.8 °F 65% 30.01 in 10.0 mi WNW 8.1 mph - N/A   Overcast
12:55 AM 35.6 °F 30.7 °F 26.6 °F 70% 30.01 in 10.0 mi WNW 5.8 mph - N/A   Overcast
1:15 AM 37.4 °F 29.8 °F 26.6 °F 65% 30.00 in 10.0 mi NW 11.5 mph 17.3 mph N/A   Overcast
1:35 AM 37.4 °F 30.8 °F 28.4 °F 70% 30.00 in 10.0 mi NW 9.2 mph - N/A   Overcast
1:55 AM 37.4 °F 30.8 °F 26.6 °F 65% 29.99 in 10.0 mi NW 9.2 mph - N/A   Overcast
2:15 AM 35.6 °F 28.6 °F 28.4 °F 75% 29.99 in 10.0 mi NW 9.2 mph - N/A   Overcast
2:35 AM 35.6 °F 29.2 °F 28.4 °F 75% 29.98 in 10.0 mi NW 8.1 mph 16.1 mph N/A   Overcast
2:55 AM 35.6 °F 29.2 °F 26.6 °F 70% 29.98 in 10.0 mi NW 8.1 mph - N/A   Overcast
3:15 AM 35.6 °F 28.0 °F 26.6 °F 70% 29.97 in 10.0 mi NW 10.4 mph 17.3 mph N/A   Overcast
3:35 AM 35.6 °F 27.5 °F 24.8 °F 65% 29.97 in 10.0 mi NW 11.5 mph - N/A   Overcast
3:55 AM 35.6 °F 27.1 °F 24.8 °F 65% 29.98 in 10.0 mi NW 12.7 mph 16.1 mph N/A   Overcast
4:15 AM 35.6 °F 27.5 °F 24.8 °F 65% 29.98 in 10.0 mi NW 11.5 mph - N/A   Overcast
4:35 AM 35.6 °F 27.5 °F 24.8 °F 65% 29.98 in 10.0 mi WNW 11.5 mph 17.3 mph N/A   Overcast
4:55 AM 35.6 °F 28.6 °F 24.8 °F 65% 29.99 in 10.0 mi NW 9.2 mph - N/A   Overcast
5:15 AM 35.6 °F 28.6 °F 24.8 °F 65% 29.99 in 10.0 mi NNW 9.2 mph 19.6 mph N/A   Overcast
5:35 AM 35.6 °F 28.0 °F 24.8 °F 65% 29.99 in 10.0 mi NW 10.4 mph - N/A   Overcast
5:55 AM 35.6 °F 29.2 °F 24.8 °F 65% 29.99 in 10.0 mi NW 8.1 mph 16.1 mph N/A   Overcast
6:55 AM 35.6 °F 27.5 °F 24.8 °F 65% 30.00 in 10.0 mi NW 11.5 mph - N/A   Overcast
7:15 AM 35.6 °F 27.1 °F 24.8 °F 65% 30.01 in 10.0 mi NW 12.7 mph - N/A   Overcast
7:35 AM 35.6 °F 27.1 °F 26.6 °F 70% 30.02 in 10.0 mi WNW 12.7 mph - N/A   Overcast
7:55 AM 35.6 °F 27.5 °F 26.6 °F 70% 30.03 in 10.0 mi West 11.5 mph - N/A   Overcast
8:15 AM 35.6 °F 28.6 °F 26.6 °F 70% 30.03 in 10.0 mi WNW 9.2 mph 19.6 mph N/A   Overcast
8:35 AM 37.4 °F 30.8 °F 26.6 °F 65% 30.03 in 10.0 mi West 9.2 mph - N/A   Overcast
8:55 AM 37.4 °F 28.5 °F 26.6 °F 65% 30.03 in 10.0 mi NW 15.0 mph 19.6 mph N/A   Overcast
9:15 AM 37.4 °F 29.8 °F 26.6 °F 65% 30.03 in 10.0 mi WNW 11.5 mph - N/A   Overcast
9:35 AM 37.4 °F 31.4 °F 26.6 °F 65% 30.03 in 10.0 mi West 8.1 mph - N/A   Overcast
9:55 AM 37.4 °F 29.3 °F 26.6 °F 65% 30.04 in 10.0 mi WNW 12.7 mph 17.3 mph N/A   Overcast
10:15 AM 37.4 °F 29.8 °F 26.6 °F 65% 30.04 in 10.0 mi NW 11.5 mph 17.3 mph N/A   Overcast
10:35 AM 37.4 °F 29.3 °F 24.8 °F 60% 30.03 in 10.0 mi WNW 12.7 mph - N/A   Mostly Cloudy
10:55 AM 37.4 °F 30.8 °F 24.8 °F 60% 30.04 in 10.0 mi WNW 9.2 mph 18.4 mph N/A   Overcast
11:15 AM 37.4 °F 30.3 °F 24.8 °F 60% 30.03 in 10.0 mi WNW 10.4 mph 17.3 mph N/A   Overcast
11:35 AM 37.4 °F 30.3 °F 24.8 °F 60% 30.03 in 10.0 mi NW 10.4 mph - N/A   Overcast
11:55 AM 37.4 °F 28.9 °F 24.8 °F 60% 30.03 in 10.0 mi NW 13.8 mph 18.4 mph N/A   Overcast
12:15 PM 37.4 °F 29.8 °F 24.8 °F 60% 30.02 in 10.0 mi WNW 11.5 mph - N/A   Overcast
12:35 PM 39.2 °F 31.2 °F 24.8 °F 56% 30.01 in 10.0 mi NW 13.8 mph 17.3 mph N/A   Overcast
12:55 PM 37.4 °F 30.3 °F 24.8 °F 60% 30.01 in 10.0 mi NW 10.4 mph - N/A   Overcast
1:15 PM 37.4 °F 28.9 °F 26.6 °F 65% 30.00 in 10.0 mi NW 13.8 mph - N/A   Overcast
1:35 PM 37.4 °F 32.1 °F 28.4 °F 70% 30.00 in 10.0 mi West 6.9 mph - N/A   Mostly Cloudy
1:55 PM 37.4 °F 29.8 °F 26.6 °F 65% 30.00 in 10.0 mi WNW 11.5 mph - N/A   Overcast
2:15 PM 39.2 °F 33.0 °F 28.4 °F 65% 30.00 in 10.0 mi West 9.2 mph - N/A   Overcast
2:35 PM 37.4 °F 30.3 °F 26.6 °F 65% 30.00 in 10.0 mi NW 10.4 mph - N/A   Overcast
2:55 PM 37.4 °F 29.3 °F 24.8 °F 60% 30.00 in 10.0 mi NW 12.7 mph 17.3 mph N/A   Overcast
3:15 PM 39.2 °F 31.6 °F 26.6 °F 61% 30.01 in 10.0 mi NNW 12.7 mph 17.3 mph N/A   Mostly Cloudy
3:35 PM 39.2 °F 31.6 °F 24.8 °F 56% 30.00 in 10.0 mi WNW 12.7 mph 16.1 mph N/A   Overcast
3:55 PM 37.4 °F 31.4 °F 26.6 °F 65% 30.00 in 10.0 mi WNW 8.1 mph - N/A   Mostly Cloudy
4:15 PM 37.4 °F 30.3 °F 26.6 °F 65% 30.01 in 10.0 mi WNW 10.4 mph - N/A   Overcast
4:35 PM 37.4 °F 30.3 °F 26.6 °F 65% 30.01 in 10.0 mi West 10.4 mph - N/A   Overcast
4:55 PM 37.4 °F 30.3 °F 26.6 °F 65% 30.02 in 10.0 mi West 10.4 mph 18.4 mph N/A   Overcast
5:15 PM 35.6 °F 29.2 °F 26.6 °F 70% 30.02 in 10.0 mi WNW 8.1 mph - N/A   Overcast
5:55 PM 35.6 °F 28.6 °F 26.6 °F 70% 30.04 in 10.0 mi WNW 9.2 mph - N/A   Overcast
6:15 PM 35.6 °F 29.2 °F 24.8 °F 65% 30.04 in 10.0 mi WNW 8.1 mph - N/A   Overcast
6:35 PM 35.6 °F 29.2 °F 24.8 °F 65% 30.04 in 10.0 mi WNW 8.1 mph - N/A   Overcast
6:55 PM 35.6 °F 29.2 °F 24.8 °F 65% 30.05 in 10.0 mi WNW 8.1 mph - N/A   Overcast
7:15 PM 37.4 °F 29.8 °F 24.8 °F 60% 30.05 in 10.0 mi WNW 11.5 mph - N/A   Overcast
7:35 PM 37.4 °F 31.4 °F 23.0 °F 56% 30.05 in 10.0 mi WNW 8.1 mph 16.1 mph N/A   Overcast
7:55 PM 37.4 °F 31.4 °F 23.0 °F 56% 30.05 in 10.0 mi NW 8.1 mph - N/A   Overcast
8:15 PM 37.4 °F 29.8 °F 23.0 °F 56% 30.06 in 10.0 mi NW 11.5 mph - N/A   Overcast
8:35 PM 35.6 °F 28.0 °F 23.0 °F 60% 30.06 in 10.0 mi NW 10.4 mph 16.1 mph N/A   Overcast
8:55 PM 35.6 °F 28.0 °F 23.0 °F 60% 30.06 in 10.0 mi NW 10.4 mph - N/A   Overcast
9:15 PM 35.6 °F 28.6 °F 23.0 °F 60% 30.06 in 10.0 mi WNW 9.2 mph 16.1 mph N/A   Overcast
9:35 PM 35.6 °F 29.2 °F 24.8 °F 65% 30.05 in 10.0 mi NW 8.1 mph 16.1 mph N/A   Overcast
9:55 PM 35.6 °F 27.5 °F 23.0 °F 60% 30.05 in 10.0 mi NW 11.5 mph 16.1 mph N/A   Overcast
10:15 PM 35.6 °F 28.0 °F 24.8 °F 65% 30.05 in 10.0 mi NW 10.4 mph - N/A   Overcast
10:35 PM 35.6 °F 27.5 °F 24.8 °F 65% 30.05 in 10.0 mi NW 11.5 mph 19.6 mph N/A   Overcast
10:55 PM 35.6 °F 28.0 °F 24.8 °F 65% 30.05 in 10.0 mi NW 10.4 mph 18.4 mph N/A   Overcast
11:15 PM 35.6 °F 27.1 °F 24.8 °F 65% 30.05 in 10.0 mi NW 12.7 mph - N/A   Overcast
11:35 PM 35.6 °F 27.1 °F 24.8 °F 65% 30.05 in 10.0 mi NW 12.7 mph - N/A   Overcast
11:55 PM 35.6 °F 27.1 °F 24.8 °F 65% 30.05 in 10.0 mi NW 12.7 mph 16.1 mph N/A   Overcast